| time (UTC) | temp C | wind direction | speed KPH | gust KPH | rain 1hr cm | rain 24hr cm | rain mn cm | humidity % | barometer mb |
| 20260902060111 | 15 | 0 | 0.0 | 0.0 | 0.00 | 0.00 | 0.00 | 84 | 1012.4 |
| 20260902054559 | 15 | 115 | 0.0 | 4.8 | 0.00 | 0.00 | 0.00 | 83 | 1012.5 |
| 20260902053116 | 15 | 108 | 0.0 | 14.5 | 0.00 | 0.00 | 0.00 | 83 | 1012.5 |
| 20260902051601 | 15 | 115 | 0.0 | 4.8 | 0.00 | 0.00 | 0.00 | 83 | 1012.5 |
| 20260902050121 | 15 | 0 | 0.0 | 9.7 | 0.00 | 0.00 | 0.00 | 83 | 1012.3 |
| 20260902044602 | 15 | 169 | 0.0 | 6.4 | 0.00 | 0.00 | 0.00 | 83 | 1012.2 |
| 20260902043105 | 15 | 82 | 0.0 | 6.4 | 0.00 | 0.00 | 0.00 | 84 | 1012.3 |
| 20260902041613 | 15 | 0 | 0.0 | 4.8 | 0.00 | 0.00 | 0.00 | 82 | 1012.2 |
| 20260902040105 | 15 | 0 | 0.0 | 4.8 | 0.00 | 0.00 | 0.00 | 82 | 1012.2 |
| 20260902034604 | 15 | 142 | 1.6 | 14.5 | 0.00 | 0.00 | 0.00 | 80 | 1012.2 |
| 20260902033101 | 16 | 0 | 3.2 | 12.9 | 0.00 | 0.00 | 0.00 | 80 | 1011.9 |
| 20260902031603 | 16 | 0 | 0.0 | 4.8 | 0.00 | 0.00 | 0.00 | 81 | 1011.9 |
| 20260902030106 | 16 | 0 | 0.0 | 4.8 | 0.00 | 0.00 | 0.00 | 78 | 1011.9 |
| 20260902024559 | 16 | 0 | 0.0 | 6.4 | 0.00 | 0.00 | 0.00 | 78 | 1011.9 |
| 20260902023057 | 16 | 168 | 0.0 | 6.4 | 0.00 | 0.00 | 0.00 | 77 | 1011.7 |
| 20260902021554 | 16 | 0 | 0.0 | 6.4 | 0.00 | 0.00 | 0.00 | 77 | 1011.8 |
| 20260902020106 | 16 | 0 | 0.0 | 11.3 | 0.00 | 0.00 | 0.00 | 76 | 1011.8 |
| 20260902014557 | 16 | 0 | 0.0 | 8.0 | 0.00 | 0.00 | 0.00 | 77 | 1011.7 |
| 20260902013059 | 17 | 250 | 0.0 | 1.6 | 0.00 | 0.00 | 0.00 | 77 | 1011.7 |
| 20260902011600 | 17 | 0 | 0.0 | 1.6 | 0.00 | 0.00 | 0.00 | 78 | 1011.6 |
| 20260902010106 | 17 | 0 | 0.0 | 9.7 | 0.00 | 0.00 | 0.00 | 78 | 1011.6 |
| 20260902004601 | 17 | 0 | 0.0 | 1.6 | 0.00 | 0.00 | 0.00 | 79 | 1011.3 |
| 20260902003101 | 17 | 0 | 0.0 | 0.0 | 0.00 | 0.00 | 0.00 | 77 | 1011.3 |
| 20260902001627 | 17 | 0 | 0.0 | 0.0 | 0.00 | 0.00 | 0.00 | 79 | 1011.3 |
| 20260902000100 | 17 | 0 | 0.0 | 1.6 | 0.00 | 0.00 | 0.00 | 80 | 1011.2 |
| 20260901234600 | 17 | 0 | 0.0 | 1.6 | 0.00 | 0.00 | 0.00 | 77 | 1011.5 |
| 20260901233106 | 17 | 0 | 0.0 | 4.8 | 0.00 | 0.00 | 0.00 | 79 | 1011.6 |
| 20260901231605 | 17 | 0 | 0.0 | 4.8 | 0.00 | 0.00 | 0.00 | 77 | 1011.6 |
| 20260901230100 | 17 | 0 | 0.0 | 3.2 | 0.00 | 0.00 | 0.00 | 78 | 1011.6 |
| 20260901223102 | 17 | 0 | 0.0 | 3.2 | 0.00 | 0.00 | 0.00 | 79 | 1011.7 |
| 20260901221604 | 17 | 0 | 0.0 | 1.6 | 0.00 | 0.00 | 0.00 | 81 | 1011.9 |
| 20260901214602 | 17 | 0 | 0.0 | 3.2 | 0.00 | 0.00 | 0.00 | 82 | 1011.9 |
| 20260901213125 | 17 | 0 | 0.0 | 3.2 | 0.00 | 0.00 | 0.00 | 81 | 1011.8 |
| 20260901211602 | 16 | 0 | 0.0 | 4.8 | 0.00 | 0.00 | 0.00 | 83 | 1012.0 |
| 20260901210116 | 16 | 0 | 0.0 | 4.8 | 0.00 | 0.00 | 0.00 | 82 | 1011.9 |
| 20260901204558 | 17 | 0 | 0.0 | 4.8 | 0.00 | 0.00 | 0.00 | 81 | 1011.9 |
| 20260901203106 | 16 | 0 | 0.0 | 1.6 | 0.00 | 0.00 | 0.00 | 84 | 1011.9 |
| 20260901201603 | 16 | 0 | 0.0 | 3.2 | 0.00 | 0.00 | 0.00 | 85 | 1012.1 |
| 20260901200111 | 16 | 0 | 0.0 | 6.4 | 0.00 | 0.00 | 0.00 | 83 | 1012.1 |
| 20260901194559 | 16 | 360 | 0.0 | 4.8 | 0.00 | 0.00 | 0.00 | 85 | 1012.1 |
| 20260901193057 | 16 | 347 | 0.0 | 4.8 | 0.00 | 0.00 | 0.00 | 84 | 1012.2 |
| 20260901191602 | 16 | 0 | 0.0 | 4.8 | 0.00 | 0.00 | 0.00 | 83 | 1012.3 |
| 20260901190058 | 16 | 0 | 0.0 | 6.4 | 0.00 | 0.00 | 0.00 | 82 | 1012.4 |
| 20260901184606 | 16 | 271 | 0.0 | 8.0 | 0.00 | 0.00 | 0.00 | 82 | 1012.5 |
| 20260901183110 | 16 | 0 | 0.0 | 8.0 | 0.00 | 0.00 | 0.00 | 82 | 1012.4 |
| 20260901181602 | 16 | 320 | 0.0 | 4.8 | 0.00 | 0.00 | 0.00 | 83 | 1012.5 |
| 20260901180058 | 15 | 0 | 0.0 | 4.8 | 0.00 | 0.00 | 0.00 | 87 | 1012.6 |
| 20260901174556 | 15 | 0 | 0.0 | 3.2 | 0.00 | 0.00 | 0.00 | 87 | 1012.5 |
| 20260901173102 | 14 | 0 | 0.0 | 1.6 | 0.00 | 0.00 | 0.00 | 91 | 1012.6 |
| 20260901171602 | 14 | 106 | 0.0 | 6.4 | 0.00 | 0.00 | 0.00 | 90 | 1012.6 |
| 20260901170108 | 14 | 0 | 0.0 | 3.2 | 0.00 | 0.00 | 0.00 | 90 | 1012.5 |
| 20260901164600 | 14 | 0 | 0.0 | 9.7 | 0.00 | 0.00 | 0.00 | 90 | 1012.5 |
| 20260901163103 | 13 | 150 | 0.0 | 8.0 | 0.00 | 0.00 | 0.00 | 90 | 1012.4 |
| 20260901161615 | 13 | 179 | 0.0 | 9.7 | 0.00 | 0.00 | 0.00 | 88 | 1012.4 |
| 20260901160103 | 13 | 0 | 0.0 | 9.7 | 0.00 | 0.00 | 0.00 | 89 | 1012.4 |
| 20260901154619 | 13 | 105 | 0.0 | 4.8 | 0.00 | 0.00 | 0.00 | 89 | 1012.4 |
| 20260901153108 | 13 | 109 | 0.0 | 6.4 | 0.00 | 0.00 | 0.00 | 89 | 1012.3 |
| 20260901151612 | 13 | 108 | 0.0 | 3.2 | 0.00 | 0.00 | 0.00 | 90 | 1012.3 |
| 20260901150110 | 13 | 0 | 1.6 | 11.3 | 0.00 | 0.00 | 0.00 | 90 | 1012.2 |
| 20260901144602 | 13 | 0 | 0.0 | 6.4 | 0.00 | 0.00 | 0.00 | 91 | 1012.2 |
| 20260901143101 | 13 | 94 | 0.0 | 6.4 | 0.00 | 0.00 | 0.00 | 90 | 1012.1 |
| 20260901141605 | 13 | 0 | 0.0 | 9.7 | 0.00 | 0.00 | 0.00 | 90 | 1012.2 |
| 20260901140100 | 13 | 117 | 1.6 | 6.4 | 0.00 | 0.00 | 0.00 | 89 | 1012.2 |
| 20260901134601 | 13 | 100 | 0.0 | 6.4 | 0.00 | 0.00 | 0.00 | 89 | 1012.1 |
| 20260901133100 | 13 | 0 | 0.0 | 3.2 | 0.00 | 0.00 | 0.00 | 89 | 1011.9 |
| 20260901131604 | 13 | 0 | 0.0 | 3.2 | 0.00 | 0.00 | 0.00 | 89 | 1011.9 |
| 20260901130105 | 13 | 0 | 0.0 | 3.2 | 0.00 | 0.00 | 0.00 | 89 | 1011.9 |
| 20260901124559 | 13 | 0 | 0.0 | 6.4 | 0.00 | 0.00 | 0.00 | 89 | 1011.8 |
| 20260901123058 | 13 | 0 | 0.0 | 3.2 | 0.00 | 0.00 | 0.00 | 89 | 1012.0 |
| 20260901121613 | 13 | 105 | 0.0 | 4.8 | 0.00 | 0.00 | 0.00 | 89 | 1011.9 |
| 20260901120112 | 13 | 0 | 0.0 | 0.0 | 0.00 | 0.00 | 0.00 | 89 | 1011.8 |
| 20260901114606 | 13 | 0 | 0.0 | 4.8 | 0.00 | 0.00 | 0.00 | 89 | 1012.0 |
| 20260901113102 | 13 | 0 | 1.6 | 11.3 | 0.00 | 0.00 | 0.00 | 89 | 1011.9 |
| 20260901111606 | 13 | 0 | 0.0 | 6.4 | 0.00 | 0.00 | 0.00 | 89 | 1011.7 |
| 20260901104559 | 13 | 0 | 0.0 | 4.8 | 0.00 | 0.00 | 0.00 | 87 | 1011.7 |
| 20260901103107 | 13 | 0 | 0.0 | 11.3 | 0.00 | 0.00 | 0.00 | 86 | 1011.6 |
| 20260901101601 | 14 | 0 | 1.6 | 9.7 | 0.00 | 0.00 | 0.00 | 85 | 1011.5 |
| 20260901100101 | 14 | 163 | 1.6 | 12.9 | 0.00 | 0.00 | 0.00 | 85 | 1011.5 |
| 20260901094604 | 14 | 0 | 0.0 | 6.4 | 0.00 | 0.00 | 0.00 | 85 | 1011.3 |
| 20260901093105 | 14 | 0 | 0.0 | 8.0 | 0.00 | 0.00 | 0.00 | 84 | 1011.2 |
| 20260901091615 | 14 | 0 | 1.6 | 9.7 | 0.00 | 0.00 | 0.00 | 84 | 1011.0 |
| 20260901090104 | 15 | 101 | 0.0 | 4.8 | 0.00 | 0.00 | 0.00 | 84 | 1011.0 |
| 20260901084608 | 15 | 0 | 0.0 | 11.3 | 0.00 | 0.00 | 0.00 | 83 | 1010.9 |
| 20260901083107 | 15 | 0 | 0.0 | 4.8 | 0.00 | 0.00 | 0.00 | 81 | 1011.0 |
| 20260901081559 | 15 | 121 | 1.6 | 11.3 | 0.00 | 0.00 | 0.00 | 80 | 1011.0 |
| 20260901080106 | 15 | 205 | 1.6 | 6.4 | 0.00 | 0.00 | 0.00 | 80 | 1010.9 |
| 20260901074634 | 15 | 0 | 0.0 | 9.7 | 0.00 | 0.00 | 0.00 | 82 | 1010.8 |
| 20260901073108 | 15 | 0 | 0.0 | 6.4 | 0.00 | 0.00 | 0.00 | 80 | 1010.5 |
| 20260901071600 | 16 | 0 | 0.0 | 9.7 | 0.00 | 0.00 | 0.00 | 77 | 1010.5 |
| 20260901064607 | 17 | 0 | 0.0 | 4.8 | 0.00 | 0.00 | 0.00 | 75 | 1010.1 |
| 20260901063102 | 17 | 0 | 1.6 | 11.3 | 0.00 | 0.00 | 0.00 | 74 | 1009.9 |
| 20260901061601 | 16 | 0 | 0.0 | 9.7 | 0.00 | 0.00 | 0.00 | 76 | 1009.7 |